User: anonymous   Login
Location: Byszew
(52.1813°N, 19.2693°E)
Time: 16:45:54
(UTC+00:00)
Language:

SeaSat 1 - Orbit

View from above orbital plane
View from above orbital plane
View from above satellite
View from above satellite

Ground track
Ground track

The orbit data is extracted from the following two-line orbital elements,

1 10967U 78064A   21129.23693802 -.00000056  00000-0  23699-4 0  9991
2 10967 107.9974  31.7263 0002424 259.9276 100.1595 14.43875744251530
Epoch (UTC): 09 May 2021 05:41:11
Eccentricity: 0.0002424
inclination: 107.9974°
perigee height: 744 km
apogee height: 747 km
right ascension of ascending node: 31.7263°
argument of perigee: 259.9276°
revolutions per day: 14.43875744
mean anomaly at epoch: 100.1595°
orbit number at epoch: 25153

The dashed part of the orbit path shows where the satellite is in the earth's shadow,  

DLR